Regional Weather Roundup
Issued by NWS Albany, NY

Home | Current Version | Previous Version | Text Only | Print | Product List | Glossary On
Versions: 1 2 3 4 5 6 7 8 9 10 11 12 13 14 15 16 17 18 19 20 21 22 23 24 25 26 27 28 29 30 31 32 33 34 35 36 37 38 39 40 41 42 43 44 45 46 47 48 49 50
000
ASUS41 KALY 262310
RWRALY

NEW YORK STATE HOURLY WEATHER ROUNDUP
NATIONAL WEATHER SERVICE ALBANY NY
600 PM EST MON JAN 26 2015

NOTE: "FAIR" INDICATES FEW OR NO CLOUDS BELOW 12,000 FEET WITH NO
SIGNIFICANT WEATHER AND/OR NO OBSTRUCTIONS TO VISIBILITY.

NYZ032-033-038>043-046>054-057>066-NYZ062>081-270000-
EAST


CITY           SKY/WX    TMP DP  RH WIND       PRES   REMARKS
ALBANY         FLURRIES  17   8  67 N10       30.04R WCI   5
GLENS FALLS    CLOUDY    17   3  54 N7        30.06R WCI   8
POUGHKEEPSIE   FLURRIES  19  11  70 N12       29.96R WCI   7
NEWBURGH       CLOUDY    19  16  86 NE9       29.92R FOG     WCI   9
MONTGOMERY     LGT SNOW  19  15  84 NE16G24   29.91S FOG     WCI   4
WHITE PLAINS   LGT SNOW  24  19  81 NE14G21   29.84R VSB 1   WCI  12
ISLIP          LGT SNOW  27  24  89 NE22      29.81F VSB 1   WCI  13
NEW YORK CITY  LGT SNOW  27  23  85 NE23G32   29.85R FOG     WCI  12
CENTRAL PARK   LGT SNOW  27  20  75 NE16G23   29.86R WCI  15
$$

NYZ005>009-017-018-044>046-055-056-270000-
CENTRAL


CITY           SKY/WX    TMP DP  RH WIND       PRES   REMARKS
FULTON         LGT SNOW  17  11  77 NE3       29.97S
SYRACUSE       LGT SNOW  14  12  92 NE8       29.95F FOG     WCI   3
ROME           CLOUDY    18   8  65 S5        29.98F WCI  11
ELMIRA         LGT SNOW  19  15  84 NE7       29.86S VSB 1   WCI  10
BINGHAMTON     CLOUDY    16  12  84 NE8       29.80S WCI   5
MONTICELLO     CLOUDY    18  16  93 E14       29.83R WCI   4
$$

NYZ026>034-041>043-270000-
NORTH


CITY           SKY/WX    TMP DP  RH WIND       PRES   REMARKS
WATERTOWN      MOCLDY    11  -1  58 NE12      30.05R WCI  -3
FORT DRUM      NOT AVBL
MASSENA        CLOUDY     5  -5  63 NE22      30.16R WCI -16
SARANAC LAKE   CLOUDY     4  -5  66 NE12      29.93F WCI -12
PLATTSBURGH    PTCLDY     6  -4  63 N10       30.15F WCI  -9
$$

NYZ001>004-010>016-019>021-270000-
WEST


CITY           SKY/WX    TMP DP  RH WIND       PRES   REMARKS
NIAGARA FALLS  FLURRIES  17  11  77 NE18      29.92R WCI   1
BUFFALO        LGT SNOW  18  13  80 NE12      29.91R WCI   5
DUNKIRK        LGT SNOW  18  13  80 NE12      29.87R WCI   5
JAMESTOWN      CLOUDY    18  12  79 NE7       29.76R WCI   8
WELLSVILLE     LGT SNOW  14   9  80 NE7       29.77R WCI   4
ROCHESTER      LGT SNOW  18  12  77 E12       29.95R WCI   5
PENN YAN       LGT SNOW  14  11  87 N5        29.89F FOG     WCI   6
$$

             KEY
       WCI = WIND CHILL INDEX
       VSB = VISIBILITY
       HX  = HEAT INDEX
$$


USA.gov is the U.S. government's official web portal to all federal, state and local government web resources and services.